Lid_Strength_Index
2 1 1 1 1 1 1 1 1 1 0 0 0 0 0 0 1 1 3 1 1 -3 -1 2 2 3 3 5 3 2 7 8 7 7 7 4 6 4 3 4 4 3 4 3 1
2 2 1 1 1 1 1 1 1 1 1 0 0 0 0 0 1 2 -1 -3 -4 -3 3 2 3 3 4 4 3 5 7 7 5 5 6 5 5 5 5 5 4 4 3 2 1
2 2 1 1 1 1 1 1 1 1 0 0 0 0 0 1 3 3 -2 -3 -4 -1 2 1 2 3 5 4 4 4 7 5 5 5 5 5 4 4 5 6 4 5 4 2 2
2 1 1 1 1 1 1 1 1 0 0 1 1 1 0 1 6 3 -4 -4 -4 1 1 2 3 4 5 5 4 6 5 4 5 4 5 5 4 5 5 5 3 3 2 2 3
2 2 1 2 1 1 1 1 1 1 1 1 1 0 2 4 4 2 -4 -2 1 1 2 3 3 4 5 5 4 5 5 4 4 4 4 4 5 5 5 3 3 2 2 3 2
2 2 2 2 1 1 1 1 2 1 1 1 1 1 2 5 1 1 1 1 1 1 2 2 3 3 4 5 5 4 5 5 4 5 5 5 5 5 4 3 4 3 3 3 2
2 2 2 2 1 1 2 2 2 2 1 1 0 2 2 3 1 1 1 2 2 2 3 2 2 3 3 5 3 4 6 5 5 4 5 5 7 6 4 3 4 3 3 3 2
2 2 2 2 2 1 1 2 2 1 1 0 -0 2 4 1 1 2 1 2 2 2 2 2 2 3 4 3 4 6 6 8 5 5 5 5 8 5 3 4 4 3 3 3 3
2 2 2 2 2 2 2 2 2 1 0 -0 2 2 4 1 3 2 2 3 2 2 2 2 2 4 4 6 7 6 9 8 7 5 5 6 7 5 4 4 4 4 3 3 3
2 2 2 2 2 2 2 2 1 1 1 1 1 4 2 4 2 2 1 2 3 3 3 4 4 5 5 7 10 9 9 8 8 6 6 7 7 5 4 4 4 4 3 3 3
2 3 3 2 2 2 2 1 3 3 2 3 3 3 4 2 2 2 2 2 3 3 6 4 6 8 6 6 6 7 8 8 7 6 6 7 6 6 5 4 4 4 4 3 3
3 3 3 2 2 2 2 2 2 2 4 2 3 3 2 2 4 3 2 4 4 6 5 6 7 6 5 6 6 7 8 8 7 6 6 7 7 6 5 5 4 4 4 3 4
3 3 3 2 2 2 1 2 0 0 5 4 3 3 3 3 4 4 3 3 5 6 6 7 6 6 6 7 7 7 8 8 8 7 6 7 8 7 5 5 4 4 3 3 4
3 3 3 3 3 0 1 0 -1 -0 8 6 5 3 3 3 5 2 2 3 5 6 6 6 5 6 7 7 6 8 6 7 8 8 10 7 12 8 6 6 5 5 4 4 3
3 3 3 4 1 2 1 -0 -0 1 15 6 5 1 2 4 4 4 2 3 6 6 6 7 7 7 7 7 6 7 6 7 7 8 9 9 10 9 6 8 7 5 5 4 3
4 3 4 2 1 -0 -1 -0 1 9 14 7 5 5 5 4 4 4 4 3 3 5 5 6 4 5 6 5 5 5 6 7 7 8 12 10 12 11 9 8 7 5 5 4 4
4 4 3 -1 2 -1 -1 1 8 12 6 8 7 5 6 6 6 5 6 6 7 9 8 7 7 6 5 7 5 6 8 12 13 13 15 10 12 11 7 6 6 6 5 4 4
4 5 1 -0 -1 -1 1 5 11 8 8 5 6 6 7 6 6 6 6 7 6 6 8 10 10 7 6 6 8 7 9 12 16 15 13 10 13 11 6 5 5 4 4 4 4
5 -0 0 -0 -1 -0 4 9 9 7 6 6 6 8 7 6 7 6 7 7 6 6 9 10 10 6 6 6 6 8 10 7 11 10 12 11 11 8 6 6 5 5 4 4 4
1 1 1 -1 -1 1 6 9 7 5 6 5 8 7 9 8 8 7 7 6 7 5 5 7 11 6 6 6 5 7 6 10 10 15 16 12 12 13 9 7 6 5 5 4 3
1 3 1 -1 -0 3 8 7 6 4 4 6 7 7 7 8 7 8 7 7 6 6 5 6 8 9 7 8 9 8 9 9 9 11 16 16 13 7 8 7 6 6 5 4 4
2 5 0 -0 5 4 6 6 8 5 4 5 5 6 7 7 8 8 8 8 5 5 7 6 8 12 9 6 6 7 8 8 12 13 11 13 13 6 6 6 5 5 4 4 3
4 3 -0 0 7 6 5 5 5 5 5 6 6 6 5 7 9 7 7 5 5 5 8 7 9 13 11 9 7 9 8 8 8 9 12 14 12 6 6 6 5 5 4 4 3
3 6 3 2 3 5 6 6 6 4 5 5 6 5 6 7 6 8 7 6 5 5 4 5 8 10 13 11 9 10 9 8 9 13 12 11 10 8 8 7 6 5 4 4 3
3 4 4 6 6 5 5 6 7 7 5 4 6 6 6 8 8 8 6 6 5 6 6 6 11 9 9 8 8 8 8 8 9 9 12 10 10 9 7 6 5 4 4 4 4
4 5 4 4 4 5 6 6 6 6 6 6 7 6 6 7 7 8 7 7 8 6 7 6 11 9 10 8 8 9 8 8 8 8 8 8 9 6 5 5 6 5 5 5 5
1 1 3 5 5 6 6 6 6 5 5 5 5 6 7 6 5 5 4 5 5 7 7 8 10 11 14 9 10 12 9 9 8 7 8 10 8 6 6 6 6 6 5 5 4